EHI
0 0 0 0 0 0 0 0 0 0 0 0 0 0 0 0 0 0 0 0 0 0 0 0 0 0 0 0 0 0 0 0 0 0 0 0 0 0 0 0 0 0 0
0 0 0 0 0 0 0 0 0 0 0 0 0 0 0 0 0 0 0 0 0 0 0 0 0 0 0 0 0 0 0 0 0 0 0 0 0 0 0 0 0 0 0
0 0 0 0 0 0 0 0 0 0 0 0 0 0 0 0 0 0 0 0 0 0 0 0 0 0 0 0 0 0 0 0 0 0 0 0 0 0 0 0 0 0 0
0 0 0 0 0 0 0 0 0 0 0 0 0 0 0 0 0 0 0 0 0 0 0 0 0 0 0 0 0 0 0 0 0 0 0 0 0 0 0 0 0 0 0
0 0 0 0 0 0 0 0 0 0 0 0 0 0 0 0 0 0 0 0 0 0 0 0 0 0 0 0 0 0 0 0 0 0 0 0 0 0 0 0 1 1 0
0 0 0 0 0 0 0 0 0 0 0 0 0 0 0 0 0 0 0 0 0 0 0 0 0 0 0 0 0 0 0 0 0 0 0 0 0 0 0 0 1 1 1
0 0 0 0 0 0 0 0 0 0 0 0 0 0 0 0 0 0 0 0 0 0 0 0 0 0 0 0 0 0 0 0 0 0 0 0 0 0 0 0 1 1 0
0 0 0 0 0 0 0 0 0 0 0 0 0 0 0 0 0 0 0 0 0 0 0 0 0 0 0 0 0 0 0 0 0 0 0 0 0 0 0 0 0 0 0
0 0 0 0 0 0 0 0 0 0 0 0 0 0 0 0 0 0 0 0 0 0 0 0 0 0 0 0 0 0 0 0 0 0 0 0 0 0 0 0 0 0 0
0 0 0 0 0 0 0 0 0 0 0 0 0 0 0 0 0 0 0 0 0 0 0 0 0 0 0 0 0 0 0 0 0 0 0 0 0 0 0 0 0 0 0
0 0 0 0 0 0 0 0 0 0 0 0 0 0 0 0 0 0 0 0 0 0 0 0 0 0 0 0 0 0 0 0 0 0 0 0 0 0 0 0 0 0 0
0 0 0 0 0 0 0 0 0 0 0 0 0 0 0 0 0 0 0 0 0 0 0 0 0 0 0 0 0 0 0 0 0 0 0 0 0 0 0 0 0 0 0
0 0 0 0 0 0 0 0 0 0 0 0 0 0 0 0 0 0 0 0 0 0 0 0 0 0 0 0 0 0 0 0 0 0 0 0 0 0 0 0 0 0 0
0 0 0 0 0 0 0 0 0 0 0 0 0 0 0 0 0 0 0 0 0 0 0 0 0 0 0 0 0 0 0 0 0 0 0 0 0 0 0 0 0 0 0
0 0 0 0 0 0 0 0 0 0 0 0 0 0 0 0 0 0 0 0 0 0 0 0 0 0 0 0 0 0 0 0 0 0 0 0 0 0 0 0 0 0 0
0 0 0 0 0 0 0 0 0 0 0 0 0 0 0 0 0 0 0 0 0 0 0 0 0 0 0 0 0 0 0 0 0 0 0 0 0 0 0 0 0 0 0
0 0 0 0 0 0 0 0 0 0 0 0 0 0 0 0 0 0 0 0 0 0 0 0 0 0 0 0 0 0 0 0 0 0 0 0 0 0 0 0 0 0 0
0 0 0 0 0 0 0 0 0 0 0 0 0 0 0 0 0 0 0 0 0 0 0 0 0 0 0 0 0 0 0 0 0 0 0 0 0 0 0 0 0 0 0
0 0 0 0 0 0 0 0 0 0 0 0 0 0 0 0 0 0 0 0 0 0 0 0 0 0 0 0 0 0 0 0 0 0 0 0 0 0 0 0 0 0 0
0 0 0 0 0 0 0 0 0 0 0 0 0 0 0 0 0 0 0 0 0 0 0 0 0 0 0 0 0 0 0 0 0 0 0 0 0 0 0 0 0 0 0
0 0 0 0 0 0 0 0 0 0 0 0 0 0 0 0 0 0 0 0 0 0 0 0 0 0 0 0 0 0 0 0 0 0 0 0 0 0 0 0 0 0 0
0 0 0 0 0 0 0 0 0 0 0 0 0 0 0 0 0 0 0 0 0 0 0 0 0 0 0 0 0 0 0 0 0 0 0 0 0 0 0 0 0 0 0
0 0 0 0 0 0 0 0 0 0 0 0 0 0 0 0 0 0 0 0 0 0 0 0 0 0 0 0 0 0 0 0 0 0 0 0 0 0 0 0 0 0 0
0 0 0 0 0 0 0 0 0 0 0 0 0 0 0 0 0 0 0 0 0 0 0 0 0 0 0 0 0 0 0 0 0 0 0 0 0 0 0 0 0 0 0
0 0 0 0 0 0 0 0 0 0 0 0 0 0 0 0 0 0 0 0 0 0 0 0 0 0 0 0 0 0 0 0 0 0 0 0 0 0 0 0 0 0 0
0 0 0 0 0 0 0 0 0 0 0 0 0 0 0 0 0 0 0 0 0 0 0 0 0 0 0 0 0 0 0 0 0 0 0 0 0 0 0 0 0 0 0
Wind_Speed
5 5 5 6 7 7 7 8 8 8 8 9 10 10 10 10 10 10 11 10 11 11 11 11 11 11 10 9 9 9 9 10 11 10 8 6 7 8 7 6 6 6 6
5 5 6 6 7 8 9 8 9 9 9 10 10 10 11 11 10 11 12 11 11 12 12 12 12 10 11 11 10 11 10 9 11 12 9 8 8 7 7 7 5 5 5
5 6 6 7 8 8 9 9 9 9 10 10 10 11 11 11 11 11 11 12 12 12 12 12 12 12 12 11 11 11 10 10 10 11 10 8 7 6 6 6 6 4 5
5 6 7 8 8 9 9 9 9 10 10 10 11 11 11 12 12 12 11 12 12 12 12 12 13 13 13 12 11 12 11 11 10 11 10 9 8 7 6 6 5 4 4
6 7 8 8 8 8 9 9 10 10 11 11 11 11 12 11 10 10 11 12 12 12 12 13 13 12 12 11 10 11 11 10 10 10 10 9 8 7 6 5 5 4 3
6 8 7 8 8 9 9 9 10 10 10 11 11 12 12 10 5 5 10 13 13 13 13 13 13 13 14 15 16 16 15 13 12 11 10 10 9 8 7 6 5 5 4
7 7 8 8 9 9 10 10 10 10 11 11 11 11 12 11 8 9 10 12 14 14 13 12 12 11 11 13 15 19 19 20 18 15 14 12 10 9 8 9 7 6 4
7 7 8 8 9 9 9 10 10 10 10 10 11 11 12 11 7 9 10 13 14 14 14 13 13 13 12 11 13 13 14 15 17 16 15 14 13 10 9 9 8 6 4
7 7 7 8 9 9 10 10 10 10 10 11 11 11 12 11 9 9 10 11 11 13 13 13 12 13 9 8 12 14 14 13 13 14 13 12 10 9 7 8 8 6 5
7 7 7 8 9 10 10 11 10 10 10 11 11 11 12 12 8 6 8 10 11 11 10 10 11 12 8 6 11 13 14 13 12 12 13 15 15 14 13 12 10 8 6
6 7 7 8 9 10 10 10 10 10 10 11 12 11 11 11 9 8 9 9 10 10 9 9 7 7 9 10 11 13 12 11 11 12 11 12 12 11 12 13 12 10 8
6 8 8 8 9 8 9 10 10 10 11 11 10 10 9 8 7 5 7 10 11 11 10 9 6 3 7 10 10 11 10 10 11 10 10 10 10 10 10 11 12 12 9
7 8 9 9 9 9 9 10 10 9 9 9 9 9 8 7 6 7 10 11 11 10 9 9 8 7 8 10 14 13 11 10 10 11 11 10 10 9 9 8 10 10 9
8 8 8 9 9 8 8 8 8 8 8 9 9 9 9 8 7 6 5 5 9 10 10 9 12 13 12 11 8 10 11 10 10 10 10 9 8 9 9 9 9 9 8
9 9 9 9 9 8 8 8 9 9 7 9 10 10 9 9 6 6 7 8 8 7 8 8 8 7 7 8 8 8 8 9 10 10 10 9 9 9 9 9 9 8 9
9 9 8 8 7 8 8 8 8 11 9 12 13 12 10 10 10 10 10 11 11 10 8 9 8 8 8 8 8 8 8 9 9 10 10 9 9 9 9 9 9 9 9
10 9 8 8 7 8 8 8 9 7 12 15 16 15 14 13 12 12 11 11 12 9 9 9 9 8 8 7 7 7 8 8 8 9 9 9 9 9 9 9 10 10 9
11 9 9 8 8 8 8 8 8 9 9 8 8 14 14 13 13 12 10 9 9 9 9 9 8 8 7 6 7 7 7 7 8 8 9 9 9 9 9 9 10 11 10
10 9 8 8 8 8 8 9 8 9 9 9 8 5 10 12 12 11 9 8 9 8 7 7 7 7 7 6 6 6 7 7 8 8 8 8 8 9 9 9 9 11 10
9 11 10 9 9 8 8 8 8 8 8 8 8 7 5 6 7 5 6 7 8 7 7 7 7 7 7 6 6 6 7 7 8 7 7 8 8 8 9 10 9 10 10
9 9 11 10 10 9 8 8 8 8 8 8 7 5 5 8 7 7 6 6 7 7 7 7 7 7 7 6 6 7 8 7 7 7 7 7 8 8 8 8 9 9 9
9 9 8 8 8 7 7 7 8 8 8 8 7 4 4 7 6 6 6 6 6 6 6 6 7 7 6 6 6 5 6 6 6 6 7 7 8 8 8 9 9 9 9
9 9 9 8 7 6 7 9 8 8 7 7 7 6 5 5 5 6 6 6 6 6 6 5 6 6 6 5 5 5 5 5 5 6 6 6 7 7 7 9 11 11 11
9 9 9 8 7 7 7 7 7 7 6 6 6 6 5 5 6 6 6 6 6 6 6 5 5 7 7 6 5 4 3 3 4 5 7 7 7 6 7 8 9 11 10
9 8 8 8 7 6 6 6 6 6 5 5 5 5 5 5 5 5 5 5 7 6 7 6 5 5 6 7 6 3 3 3 3 4 5 6 7 7 7 8 8 9 10
8 8 7 6 6 5 5 5 5 5 5 4 5 5 5 4 4 4 4 4 5 6 6 5 6 7 7 5 5 5 3 2 3 4 6 6 7 6 7 7 10 10 11
Wind_Direction
256 262 273 275 280 282 281 282 285 287 289 284 284 283 280 276 271 265 266 271 265 264 262 258 256 262 268 268 261 258 258 259 267 272 269 272 275 279 281 273 260 249 227
262 265 269 275 279 281 285 288 286 284 283 283 283 281 278 276 272 268 266 267 266 265 264 263 260 257 253 258 263 263 261 263 266 272 275 270 265 268 273 269 262 252 241
266 265 271 277 282 285 289 289 288 285 284 284 283 280 279 279 275 270 268 268 267 267 265 263 261 259 257 256 256 260 260 255 255 263 266 266 263 260 264 259 254 248 243
272 273 278 283 288 289 289 288 286 286 285 285 284 283 281 279 276 273 270 269 268 267 265 263 261 258 255 255 255 254 258 262 259 258 262 261 253 248 247 249 241 230 231
274 278 283 286 287 285 285 286 287 286 285 287 287 285 282 278 273 279 281 277 273 270 266 262 259 256 262 263 265 261 256 252 255 254 255 256 252 245 243 241 241 227 225
269 279 286 288 287 286 287 288 289 288 289 289 286 286 285 283 304 301 283 283 280 274 269 265 262 249 241 237 247 259 267 265 263 264 260 257 259 257 251 249 241 224 222
269 279 284 286 287 289 292 293 292 292 291 289 287 287 285 283 273 261 259 274 275 272 270 267 264 261 246 245 235 232 241 246 252 263 268 268 266 258 257 250 240 238 235
270 277 284 288 290 291 291 291 292 291 291 289 288 287 286 284 268 257 256 265 268 266 265 264 262 264 260 259 260 251 244 237 232 235 247 257 263 270 263 257 258 245 237
271 279 287 292 293 292 292 294 295 294 292 289 287 287 286 284 267 249 253 276 269 267 265 264 263 263 257 246 259 262 259 253 241 236 244 252 270 281 278 265 245 229 223
276 283 289 290 290 290 293 294 294 293 290 290 290 291 290 288 282 250 246 274 275 276 272 267 254 251 263 241 254 257 257 254 255 239 227 233 241 243 234 242 245 234 225
278 281 282 285 285 284 287 288 290 290 292 291 291 289 286 284 279 246 235 267 280 283 282 277 271 212 226 234 247 258 261 270 262 254 247 237 230 230 228 222 227 230 225
268 272 277 281 284 289 288 286 287 288 287 285 284 286 286 282 277 261 228 244 268 278 278 278 284 233 231 235 239 250 255 259 256 252 246 240 235 229 224 221 218 224 225
262 270 276 281 281 282 284 285 283 280 283 292 296 297 300 301 288 233 233 242 245 257 270 279 282 268 255 242 235 237 238 239 243 244 243 239 236 234 229 220 217 217 217
258 266 271 275 277 279 280 280 284 290 295 298 299 299 300 296 296 306 291 262 241 246 257 258 244 243 246 258 248 221 227 234 236 240 242 241 235 229 227 222 212 202 203
255 261 267 271 275 280 276 276 282 287 294 292 298 301 299 297 324 351 313 300 305 317 312 284 270 258 245 243 243 236 229 224 227 235 240 237 230 226 223 218 212 204 200
250 255 265 271 275 276 280 280 249 244 253 244 250 265 283 281 293 295 286 277 276 279 278 270 268 263 258 253 248 239 231 230 228 227 230 231 228 222 220 216 208 204 200
251 261 268 273 275 275 279 284 291 271 237 237 238 239 247 271 281 279 276 276 268 253 253 262 266 264 261 258 252 248 242 234 231 229 226 225 226 222 218 213 206 202 199
251 254 252 261 266 272 277 280 283 291 297 293 245 223 230 243 255 261 261 268 259 231 246 257 265 268 264 257 253 246 243 238 229 226 223 222 221 220 218 213 208 202 196
254 258 256 262 266 269 273 275 278 283 288 293 299 264 215 228 236 241 236 253 272 274 266 265 267 270 267 258 254 247 241 238 232 225 222 218 218 218 219 215 209 196 194
250 249 251 261 264 265 268 272 276 283 287 291 296 303 295 275 272 255 236 258 274 280 279 275 272 270 267 260 251 246 241 236 233 228 222 216 216 218 219 218 207 197 195
258 244 218 240 254 261 269 274 277 282 286 290 294 308 313 297 297 300 295 286 285 287 284 280 275 269 264 259 254 245 241 237 230 226 219 215 214 216 220 216 207 199 195
259 261 252 249 255 259 270 276 276 278 283 289 291 281 231 269 294 298 299 296 294 290 286 281 280 276 271 266 260 255 247 239 230 226 225 220 215 213 211 209 204 197 191
258 260 259 254 253 249 251 261 269 273 280 288 294 300 298 302 306 308 309 310 305 298 294 289 286 288 285 277 274 264 253 249 239 234 226 222 216 213 210 208 205 195 188
260 256 256 256 255 258 260 266 272 276 282 291 297 304 311 313 313 320 324 324 317 309 306 303 300 301 301 296 283 269 266 275 260 246 235 228 219 215 211 209 206 200 190
265 259 257 257 257 260 266 273 278 283 291 298 300 305 311 315 319 324 330 332 327 319 320 320 318 317 317 313 309 317 19 1 323 300 252 237 229 220 214 210 203 195 187
267 260 260 262 264 270 276 278 282 289 295 300 305 310 315 319 323 324 326 334 328 323 325 327 333 336 333 330 345 351 352 327 305 295 278 252 235 223 213 210 202 195 188